Weather in Adil-Yangiyurt

Russia / Republic of Dagestan     43°33′50″N   46°35′03″E
temp.,
°C
wind,
m/s
gust,
m/s
humid.,
%
clouds,
%
prec.,
mm/h
press.,
hPa
HPBL,
m
20 april, tue
tue2000:00+12e3564100 0.0 1015109
03:00+11e3770100 0.0 1014128
06:00+13ese51266100 0.0 1012282
09:00+18ese91656100 0.0 1009544
12:00+23ese12164493 0.0 1006722
15:00+21ese101553100 0.0 1005461
18:00+16ese61067100 0.0 1005231
21:00+13ese2383100 0.1 100861
21 april, wed
wed2100:00+14wnw3577100 0.1 1010119
03:00+16w61283100 0.2 1012359
06:00+15wnw61083100 0.0 1014540
09:00+17wnw8107085 0.0 1016938
12:00+18wnw795482 0.0 10171034
15:00+17wnw7760100 0.4 10181220
18:00+15wsw5968100 0.1 1019299
21:00+12w357499 0.1 1021126
22 april, thu
thu2200:00+11w2489100 1.5 1022148
03:00+12w3583100 1.5 1021130
06:00+12wnw2381100 0.0 102195
09:00+14nw236798 0.0 1022425
12:00+18nnw445590 0.0 10221278
15:00+18nne445299 0.0 10211482
18:00+16ne3563100 0.0 1021167
21:00+14ene356997 0.0 1021161
23 april, fri
fri2300:00+13ne2476100 0.0 1019146
03:00+12nw247499 0.0 1019142
06:00+12nw4773100 0.0 1021475
09:00+11wnw4790100 0.3 1022429
12:00+13wnw6878100 0.2 1023825
15:00+16w686279 0.3 10221323
18:00+15wnw36664 0.0 1022175
21:00+11nw22784 0.0 102112
24 april, sat
sat2400:00+10s11846 0.0 102010
03:00+10se228353 0.0 102011
06:00+11ese1181100 0.0 102015
09:00+16ene226296 0.0 1020569
12:00+20e55472 0.0 10191546
15:00+20e77450 0.0 10191300
18:00+15e59635 0.0 1020390
21:00+10e398197 0.0 1020182